Location: ????????
(38.4362°N, 22.8767°E)
Time: 20:01:43
(UTC+00:00)

CZ-2C R/B - Pass Details

Date: 23 April 2024
Orbit: 666 x 779 km, 98.4° (Epoch: 26 May)

Event Time Altitude Azimuth Distance (km) Brightness Sun altitude
Rises 01:37:30 0° 18° (NNE) 3,267 6.7 -22.2°
Reaches altitude 10° 01:39:55 10° 24° (NNE) 2,330 5.9 -21.9°
Maximum altitude 01:44:55 51° 100° (E) 960 3.2 -21.1°
Enters shadow 01:48:39 17° 171° (S) 1,845 4.2 -20.5°
